Location: Newark
(21.1200°N, 73.4000°E)
Time: 11:20:43
(UTC+00:00)

SR - Pass Details

Date: 04 February 2020
Orbit: 575 x 880 km, 66.7° (Epoch: 25 February)

Event Time Altitude Azimuth Distance (km) Brightness Sun altitude
Rises 01:26:39 0° 323° (NW) 3,184 ? -4.4°
Reaches altitude 10° 01:29:23 10° 312° (NW) 2,203 ? -3.8°
Maximum altitude 01:33:37 28° 254° (WSW) 1,252 ? -2.8°
Drops below altitude 10° 01:37:34 10° 194° (SSW) 2,033 ? -2.0°
Sets 01:40:00 0° 183° (S) 2,895 ? -1.4°
